Precipitable_Water
1.17 1.15 1.10 1.12 1.14 1.17 1.12 0.93 0.78 0.68 0.73 0.83 0.82 0.92 0.93 0.91 0.93 0.94 0.92 0.90 0.91 0.91 0.92 0.96 0.95 0.91 0.89 0.86 0.83 0.79 0.78 0.76 0.73 0.72 0.73 0.72 0.71 0.70
1.20 1.14 1.12 1.12 1.15 1.18 1.17 1.06 0.96 0.87 0.75 0.89 0.88 0.91 0.93 0.91 0.94 0.94 0.94 0.93 0.91 0.90 0.91 0.94 0.94 0.92 0.89 0.85 0.82 0.79 0.76 0.75 0.74 0.73 0.73 0.73 0.70 0.69
1.23 1.13 1.10 1.14 1.14 1.16 1.17 1.13 1.03 0.98 0.84 0.87 0.92 0.93 0.92 0.90 0.92 0.95 0.94 0.91 0.91 0.91 0.92 0.92 0.92 0.92 0.89 0.82 0.82 0.79 0.75 0.74 0.74 0.75 0.73 0.73 0.70 0.67
1.25 1.17 1.11 1.13 1.14 1.16 1.16 1.11 1.06 1.02 0.94 0.85 0.91 0.91 0.92 0.97 0.97 0.94 0.93 0.93 0.92 0.94 0.95 0.94 0.93 0.94 0.91 0.86 0.77 0.75 0.73 0.74 0.75 0.73 0.71 0.70 0.68 0.66
1.29 1.23 1.14 1.11 1.09 1.12 1.13 1.10 1.07 1.01 0.97 0.91 0.88 0.93 0.93 0.96 0.95 0.95 0.92 0.91 0.95 0.98 0.99 0.98 0.98 0.96 0.93 0.88 0.79 0.74 0.72 0.73 0.70 0.69 0.67 0.67 0.67 0.66
1.33 1.30 1.25 1.16 1.12 1.11 1.09 1.07 1.06 1.02 0.96 0.94 0.91 0.92 0.93 0.96 0.97 0.93 0.91 0.95 0.95 1.02 1.03 1.02 1.00 0.99 0.93 0.91 0.80 0.75 0.71 0.68 0.69 0.68 0.68 0.66 0.66 0.63
1.28 1.31 1.33 1.29 1.23 1.18 1.12 1.09 1.07 1.06 1.03 0.96 0.92 0.90 0.90 0.90 0.90 0.97 0.97 1.00 1.00 1.02 1.00 1.00 0.97 0.95 0.95 0.89 0.77 0.73 0.72 0.72 0.68 0.67 0.66 0.67 0.65 0.63
1.23 1.26 1.32 1.32 1.30 1.25 1.18 1.19 1.17 1.13 1.07 1.05 1.00 0.92 0.93 0.97 1.00 0.99 0.99 0.95 0.87 1.03 0.97 0.91 0.97 0.91 0.89 0.83 0.76 0.74 0.73 0.70 0.67 0.66 0.65 0.67 0.65 0.60
1.20 1.21 1.25 1.26 1.31 1.29 1.26 1.22 1.20 1.21 1.19 1.14 1.05 1.03 1.00 1.03 1.06 1.02 1.01 0.98 0.96 1.00 0.96 0.87 0.92 0.86 0.85 0.80 0.77 0.78 0.73 0.70 0.66 0.65 0.65 0.67 0.64 0.61
1.23 1.22 1.16 1.18 1.21 1.27 1.23 1.18 1.20 1.20 1.19 1.19 1.16 1.12 1.15 1.13 1.11 1.08 1.04 0.99 0.95 0.95 0.96 0.82 0.88 0.83 0.81 0.81 0.79 0.77 0.74 0.71 0.67 0.66 0.67 0.68 0.63 0.58
1.16 1.18 1.20 1.18 1.19 1.24 1.21 1.13 1.10 1.16 1.21 1.24 1.20 1.18 1.17 1.15 1.13 1.04 0.94 0.89 0.83 0.84 0.91 0.86 0.82 0.80 0.78 0.77 0.78 0.74 0.74 0.73 0.69 0.66 0.69 0.67 0.62 0.58
1.06 1.10 1.13 1.14 1.17 1.15 1.15 1.09 1.05 1.10 1.14 1.14 1.13 1.12 1.11 1.08 1.07 1.06 0.99 0.88 0.85 0.80 0.86 0.82 0.79 0.77 0.73 0.79 0.76 0.73 0.74 0.72 0.71 0.67 0.68 0.66 0.60 0.56
0.93 0.99 1.04 1.09 1.10 1.12 1.11 1.10 1.07 1.18 1.12 1.09 1.07 1.05 1.02 1.02 1.02 1.01 0.98 0.95 0.87 0.81 0.87 0.86 0.78 0.79 0.75 0.71 0.74 0.73 0.71 0.69 0.68 0.67 0.63 0.65 0.60 0.54
0.87 0.93 0.99 1.03 1.06 1.08 1.08 1.07 1.10 1.10 1.05 1.03 1.00 0.97 0.95 0.98 0.99 0.98 0.99 0.97 0.93 0.87 0.88 0.85 0.79 0.77 0.74 0.67 0.65 0.68 0.67 0.64 0.63 0.61 0.57 0.56 0.54 0.48
0.83 0.89 0.94 0.97 0.99 1.01 1.02 1.04 1.04 0.97 0.95 0.92 0.92 0.94 0.99 0.99 0.95 0.95 0.93 0.92 0.89 0.89 0.87 0.85 0.81 0.78 0.73 0.67 0.63 0.62 0.60 0.60 0.59 0.55 0.52 0.48 0.43 0.37
0.76 0.83 0.87 0.90 0.92 0.95 0.94 0.94 0.95 0.94 0.93 0.90 0.90 0.93 0.92 0.91 0.90 0.90 0.86 0.84 0.79 0.78 0.82 0.82 0.79 0.76 0.69 0.67 0.62 0.58 0.56 0.52 0.53 0.50 0.46 0.41 0.37 0.33
0.68 0.71 0.75 0.79 0.79 0.83 0.86 0.88 0.89 0.89 0.88 0.89 0.88 0.87 0.87 0.85 0.86 0.86 0.83 0.78 0.74 0.72 0.72 0.72 0.72 0.71 0.69 0.64 0.58 0.57 0.53 0.50 0.46 0.42 0.39 0.35 0.34 0.32
0.56 0.60 0.62 0.70 0.71 0.75 0.78 0.80 0.83 0.83 0.85 0.86 0.84 0.84 0.82 0.81 0.80 0.79 0.79 0.76 0.71 0.68 0.68 0.67 0.65 0.61 0.59 0.57 0.56 0.52 0.49 0.44 0.42 0.40 0.38 0.34 0.31 0.30
0.48 0.51 0.55 0.61 0.63 0.67 0.71 0.73 0.75 0.80 0.82 0.80 0.78 0.77 0.80 0.79 0.74 0.73 0.72 0.69 0.66 0.65 0.64 0.62 0.59 0.56 0.51 0.47 0.51 0.51 0.45 0.43 0.40 0.38 0.36 0.32 0.29 0.28
0.47 0.48 0.51 0.54 0.58 0.61 0.62 0.65 0.69 0.73 0.74 0.74 0.73 0.73 0.73 0.72 0.69 0.67 0.65 0.65 0.62 0.60 0.57 0.57 0.55 0.54 0.50 0.47 0.45 0.47 0.47 0.42 0.39 0.35 0.33 0.32 0.31 0.29
0.44 0.45 0.49 0.51 0.53 0.56 0.58 0.58 0.62 0.65 0.67 0.67 0.67 0.67 0.67 0.66 0.64 0.62 0.62 0.61 0.58 0.56 0.52 0.52 0.53 0.52 0.51 0.48 0.43 0.42 0.44 0.43 0.39 0.34 0.32 0.29 0.27 0.24
0.43 0.44 0.45 0.47 0.49 0.51 0.52 0.53 0.54 0.58 0.59 0.61 0.61 0.62 0.62 0.62 0.59 0.59 0.59 0.56 0.54 0.53 0.51 0.51 0.50 0.47 0.44 0.42 0.40 0.39 0.38 0.39 0.39 0.37 0.34 0.30 0.24 0.19
0.41 0.42 0.43 0.44 0.46 0.48 0.49 0.49 0.50 0.51 0.53 0.53 0.55 0.56 0.57 0.56 0.56 0.55 0.54 0.52 0.51 0.49 0.47 0.45 0.44 0.44 0.41 0.40 0.39 0.37 0.35 0.34 0.33 0.30 0.28 0.29 0.28 0.28
Wind_Speed
42 41 40 38 36 35 33 32 29 28 30 30 29 31 31 30 30 30 29 28 27 26 25 24 24 24 24 24 24 24 24 25 25 25 25 26 27 27
45 44 43 42 41 38 37 36 34 31 31 33 33 31 33 33 32 31 31 31 30 29 28 28 27 27 26 27 27 27 27 27 27 27 27 28 29 30
47 47 47 45 44 43 41 39 38 35 33 32 34 34 34 34 34 33 33 32 32 31 31 30 30 30 30 30 30 29 29 29 29 29 30 30 31 32
50 50 49 48 48 46 45 43 42 41 38 36 36 36 35 36 36 35 35 35 34 34 33 33 33 33 33 32 32 32 31 31 32 32 32 33 33 33
53 52 52 51 51 49 48 46 45 43 42 40 38 38 38 37 37 37 37 37 37 37 37 36 35 35 35 35 35 34 34 34 34 34 34 34 34 34
55 55 55 54 53 52 51 50 47 46 44 43 41 40 40 39 39 39 38 39 39 40 40 39 39 39 38 37 36 36 36 35 35 35 35 35 34 35
58 58 58 58 56 55 53 52 51 49 47 46 44 43 42 41 42 41 41 42 42 42 42 42 40 38 37 38 38 38 37 36 36 35 35 35 35 35
60 60 58 58 59 59 58 56 56 54 52 50 49 48 47 46 46 45 44 41 42 44 43 43 42 40 40 41 39 38 37 37 37 36 36 35 35 35
56 60 59 57 58 58 60 60 59 59 59 56 55 53 51 50 48 48 45 43 43 43 43 42 42 41 41 40 40 39 39 38 37 36 35 35 35 36
49 50 59 61 60 55 57 58 58 60 59 58 58 59 58 54 52 50 47 45 42 42 42 42 42 42 41 41 41 40 39 38 37 37 36 36 36 36
55 52 49 54 62 59 57 57 60 59 58 59 56 56 56 56 52 49 48 46 44 43 44 41 41 41 41 42 41 40 39 38 38 37 37 37 37 36
54 59 57 51 52 59 61 56 56 60 59 58 55 56 54 51 52 50 50 48 46 45 46 43 41 40 40 42 41 39 39 39 38 38 38 37 36 36
61 61 60 59 58 55 58 56 56 53 54 53 52 53 52 52 53 52 51 49 48 47 45 45 43 41 39 36 39 40 39 38 38 37 37 37 36 36
61 62 60 61 59 60 59 59 58 56 55 54 53 53 52 52 52 51 51 51 50 48 46 46 43 42 40 38 37 37 38 38 37 37 36 36 36 37
61 62 63 61 62 59 61 61 60 58 57 57 55 55 56 52 52 50 49 48 46 45 45 45 44 43 42 39 38 37 37 38 37 37 36 36 36 37
64 61 63 62 60 58 58 60 57 56 53 54 54 53 53 52 50 50 49 48 44 43 45 45 43 43 42 41 39 37 37 35 36 36 36 36 37 37
62 62 61 60 61 60 59 58 58 58 58 57 54 53 52 52 52 50 50 50 48 43 42 42 42 42 42 41 39 38 37 36 36 35 35 35 36 38
63 64 62 62 62 61 59 57 56 57 57 56 55 54 54 53 51 50 47 50 50 47 44 43 41 40 38 38 38 37 37 36 36 36 36 36 37 37
60 63 63 63 62 62 61 59 58 57 55 54 54 54 53 52 51 51 48 47 48 47 45 44 41 41 40 39 39 38 37 35 35 35 36 35 36 36
54 57 60 62 61 62 61 61 60 58 56 55 54 52 51 52 49 49 48 46 45 45 44 44 42 41 39 38 37 37 37 35 35 35 35 35 35 36
46 50 54 57 59 59 59 58 59 57 56 56 54 51 50 49 48 47 46 46 46 46 45 44 43 39 38 37 36 34 35 35 34 33 33 33 33 33
42 43 45 50 54 56 56 56 56 56 56 54 55 55 54 53 50 49 47 45 43 44 42 42 42 39 37 35 34 33 33 33 34 33 33 33 32 31
40 40 40 41 43 49 52 54 54 54 54 53 52 52 53 52 52 49 46 45 43 41 41 38 37 37 36 35 34 33 32 31 31 31 32 32 32 33
Wind_Direction
234 235 235 236 236 238 238 237 238 239 239 239 243 243 246 250 251 253 254 256 259 261 263 263 266 269 273 277 281 282 285 287 291 292 293 295 297 299
236 236 236 237 237 238 239 239 240 242 244 243 244 249 248 250 252 253 254 255 257 259 261 263 267 269 272 275 279 282 283 285 288 289 291 294 296 298
237 237 237 237 238 239 239 241 241 243 247 249 248 249 250 251 252 253 254 255 257 258 261 263 266 269 272 275 277 280 282 283 286 287 289 291 294 296
237 238 238 238 238 239 240 241 243 244 247 249 250 250 252 252 252 253 254 255 257 258 261 264 267 268 271 274 276 278 281 282 284 286 288 290 293 294
239 239 239 238 239 239 240 242 243 245 247 249 250 251 252 252 252 254 255 256 258 259 261 264 266 268 270 273 275 276 279 280 283 284 287 288 291 293
240 240 239 239 239 240 241 242 243 244 246 248 250 251 252 252 252 254 255 256 258 259 261 263 265 269 269 270 273 274 276 279 281 283 285 287 289 291
241 241 241 240 241 241 241 242 243 244 246 247 249 251 251 253 252 254 256 258 259 259 262 262 264 266 267 268 272 272 274 277 279 282 284 286 288 290
242 241 240 241 241 242 242 243 243 244 245 247 249 251 251 252 253 255 256 256 260 259 259 261 263 263 266 268 270 271 273 275 278 280 282 284 286 289
244 240 241 242 242 242 243 244 244 245 246 248 249 250 252 252 253 252 253 255 257 260 257 259 261 264 266 265 268 270 272 273 275 278 280 283 286 288
245 244 243 244 240 243 242 244 245 247 247 248 250 253 252 252 250 252 251 255 260 258 255 262 261 264 263 264 266 267 269 270 273 276 279 281 285 287
246 247 246 245 243 242 243 245 247 247 249 247 248 249 250 250 247 249 250 252 257 257 256 261 262 262 262 263 264 266 267 268 271 275 277 280 284 286
249 248 248 247 245 246 243 247 247 250 248 247 250 250 246 246 246 248 250 251 254 258 256 256 261 261 264 263 262 264 266 267 271 274 276 278 281 284
250 250 249 248 248 248 245 244 247 251 248 247 247 245 246 247 248 249 250 251 253 258 258 255 259 258 262 266 263 263 264 267 269 272 274 276 279 283
253 250 250 248 247 247 246 246 250 250 249 247 246 247 246 247 248 250 250 252 255 258 254 253 259 255 257 262 267 264 264 265 267 270 273 276 278 282
252 251 251 250 248 250 248 247 249 250 247 247 247 248 246 248 250 248 251 250 254 254 254 252 255 254 254 260 263 265 264 265 267 269 272 275 278 282
252 252 250 249 249 249 248 248 249 243 243 246 251 247 247 246 247 250 248 247 250 255 252 252 252 252 251 257 260 261 263 265 266 268 272 275 278 282
252 251 249 248 247 247 248 249 247 245 246 249 247 245 246 246 246 249 248 243 250 252 253 248 251 252 253 253 258 259 260 263 266 268 272 275 279 282
252 248 249 247 247 247 248 248 246 247 246 245 245 246 247 243 246 244 249 246 247 249 249 248 248 249 252 255 257 257 259 262 265 268 271 275 279 282
252 248 248 247 248 247 247 247 247 247 245 244 245 246 247 243 243 243 247 248 245 246 245 245 246 247 252 255 255 256 259 263 265 268 271 275 279 282
254 250 247 247 247 247 248 247 246 245 244 244 244 245 245 241 243 243 245 246 244 241 243 244 245 249 251 252 255 256 256 261 264 267 271 275 279 282
255 252 248 247 247 246 247 246 244 243 243 243 243 243 242 240 241 242 244 243 242 241 243 244 244 247 249 250 254 257 258 259 263 267 272 275 279 283
254 254 251 249 246 245 245 244 243 242 242 242 243 242 242 243 243 243 242 241 242 240 242 243 240 244 246 250 252 255 257 259 263 268 271 275 279 283
252 251 252 250 248 245 243 242 242 241 241 241 242 242 242 242 242 241 241 240 239 239 238 237 238 240 244 248 250 254 257 260 264 269 273 275 279 283